Hourly Data Report for September 01, 2004

SHERBROOKE A
QUEBEC

45°26'00.000" N
71°41'00.000" W
241.40 m
7028124
71610
YSC

Download Data

Hourly Data (September 2004)
Hourly Data Report for September 1, 2004
TIME
LST
Temp Definition
°C
Dew Point Definition
°C
Rel Hum Definition
%
Precip. Amount Definition
mm

Wind Dir Definition
10's deg

Wind Spd Definition
km/h
Visibility Definition
km
Stn Press Definition
kPa
Hmdx Definition


Wind Chill Definition


Weather Definition


00:00 13.2 11.6 90   27 7 15.0 98.88      
01:00 12.5 11.2 92     0 15.0 98.90      
02:00 10.7 9.9 95   22 4 15.0 98.89      
03:00 10.3 9.5 95     0 8.0 98.85      
04:00 12.1 11.3 95   23 4 15.0 98.88      
05:00 12.3 11.3 94   22 6 15.0 98.91      
06:00 12.1 11.2 94   22 7 15.0 98.94      
07:00 14.0 12.5 91   24 7 24.1 98.98     Mostly Cloudy
08:00 16.0 13.3 84   29 11 24.1 98.99     Mostly Cloudy
09:00 17.0 12.8 76   29 17 24.1 99.01     Mostly Cloudy
10:00 18.6 13.8 74   27 17 24.1 99.04     Mostly Cloudy
11:00 17.4 12.0 71   28 15 24.1 99.03     Mostly Cloudy
12:00 19.4 12.2 63   31 19 24.1 99.03     Mostly Cloudy
13:00 20.0 11.6 58   30 22 24.1 99.04     Mostly Cloudy
14:00 19.2 10.0 55   32 19 24.1 99.08     Mostly Cloudy
15:00 19.3 9.9 54   32 13 24.1 99.09     Mostly Cloudy
16:00 19.0 9.5 54   30 22 24.1 99.12     Mainly Clear
17:00 18.1 9.3 56   32 11 15.0 99.15      
18:00 15.7 9.2 65   32 4 15.0 99.20      
19:00 12.8 10.4 85     0 15.0 99.25      
20:00 10.7 8.3 85   34 4 15.0 99.32      
21:00 9.9 8.4 90   32 6 15.0 99.37      
22:00 10.5 7.2 80   35 6 15.0 99.46      
23:00 8.8 6.3 84     0 15.0 99.53      

Notes on Data Quality.

Legend

  • E = Estimated
  • M = Missing
  • NA = Not Available*
  • [empty] = Indicates an unobserved value
Date modified: